Location: North Mimms
(51.7333°N, 0.2333°W)
Time: 15:19:29
(UTC+00:00)

Daily predictions for brighter satellites

Satellite Brightness Start Highest point End
(mag) Time Altitude Azimuth Time Altitude Azimuth Time Altitude Azimuth
Cosmos 2219 Rocket 4.0 16:26:45 10° N 16:29:29 13° NNE 16:32:13 10° NE
Cosmos 1842 Rocket 3.6 16:25:05 10° S 16:29:34 87° E 16:34:06 10° N
SL-24 R/B - RUBIN 2 3.7 16:25:08 10° NW 16:29:46 85° SW 16:34:06 10° SE
Meteor 1-25 Rocket 4.2 16:24:23 10° N 16:29:58 70° ENE 16:35:35 10° SSE
Nadezhda 4 Rocket 4.1 16:24:52 10° N 16:31:15 89° W 16:37:36 10° S
Cosmos 1500 3.7 16:29:58 10° N 16:33:27 35° ENE 16:36:53 10° SE
H-2A R/B 4.0 16:30:22 10° S 16:33:52 43° W 16:37:24 10° NNW
Cosmos 1606 3.4 16:30:17 10° SSW 16:34:01 55° WNW 16:37:48 10° N
CZ-4B R/B 2.9 16:30:25 10° SSE 16:34:12 53° ENE 16:37:52 10° N
Cosmos 44 Rocket 3.5 16:29:31 10° NW 16:34:22 49° NE 16:39:04 10° ESE
Cosmos 1464 Rocket 4.2 16:28:00 10° S 16:34:24 84° W 16:40:49 10° N
COSMOS 2406 3.4 16:35:51 10° SSW 16:41:29 59° ESE 16:47:06 10° NE
Cosmos 468 Rocket 4.0 16:37:33 10° SSW 16:42:43 83° ESE 16:47:59 10° NNE
Meteor 1-31 Rocket 4.2 16:42:27 10° S 16:46:05 42° W 16:49:46 10° NNW
Cosmos 1428 Rocket 4.5 16:40:22 10° N 16:46:30 66° ENE 16:52:38 10° SSE
Cosmos 1092 Rocket 4.0 16:45:14 10° N 16:51:38 80° ENE 16:57:58 10° SSE
Meteor 2-21 4.4 16:49:09 10° N 16:55:14 68° ENE 17:01:14 10° SSE
CZ-4B R/B 3.9 16:50:38 10° ESE 16:55:14 30° ENE 16:59:49 10° N
USA 267 3.9 16:50:26 10° ENE 16:56:29 40° SE 17:02:33 10° SSW
CZ-2D R/B 4.0 16:53:53 10° SE 16:57:16 31° ENE 17:00:39 10° N
ATLAS CENTAUR R/B 3.1 16:48:02 10° SW 16:57:54 67° SSE 17:01:31 14° ENE
SL-16 R/B 4.4 16:53:54 10° N 16:58:38 23° NW 17:03:23 10° WSW
USA 306 2.9 16:55:25 10° WNW 16:59:41 73° NNE 17:03:51 10° E
Cosmos 1939 Rocket 2.8 16:55:49 10° SSE 16:59:51 66° ENE 17:03:53 10° N
Cosmos 1633 Rocket 3.5 16:56:15 10° N 17:00:23 39° ENE 17:04:30 10° SE
COSMO-SKYMED 1 4.2 16:59:10 13° ENE 17:00:40 15° E 17:03:15 10° SE
Cosmos 1666 3.0 16:58:39 10° N 17:02:12 40° ENE 17:05:43 10° SE
Cosmos 1151 Rocket 3.8 16:58:33 10° SSE 17:02:25 32° E 17:06:20 10° NNE
Cosmos 2360 Rocket 3.2 16:59:07 10° NNW 17:03:51 26° NE 17:08:17 11° E
Cosmos 1782 2.9 17:00:30 10° S 17:04:24 57° E 17:08:19 10° NNE
ISS -1.1 17:02:15 10° W 17:04:56 22° SW 17:07:36 10° SSE
SeaSat 1 3.5 17:03:32 10° NNE 17:08:10 42° NW 17:12:47 10° WSW
SL-08 R/B 3.4 17:03:50 10° NNE 17:08:33 80° WNW 17:13:11 10° SSW
Cosmos 1763 Rocket 3.9 17:04:03 10° SW 17:09:05 62° WNW 17:14:14 10° NNE
Cosmos 1818 3.5 17:04:26 10° NW 17:09:58 80° NE 17:15:26 10° SE
PAYLOAD B 4.4 17:04:37 10° SE 17:10:02 52° ENE 17:15:27 10° N
YAOGAN 1 4.1 17:11:21 16° NE 17:11:21 16° NE 17:13:37 10° NNE
NOAA 12 4.4 17:07:15 10° S 17:12:34 72° WSW 17:17:54 10° NNW
Meteor 2-14 Rocket 4.5 17:08:23 10° N 17:14:32 89° W 17:20:37 10° S
ATLAS 5 CENTAUR R/B 2.6 17:07:24 10° NW 17:17:00 60° NNE 17:19:39 15° ESE
Cosmos 1536 4.4 17:14:34 10° NNE 17:16:30 17° NE 17:16:30 17° NE
Cosmos 2279 Rocket 4.1 17:12:34 10° SSE 17:18:31 51° E 17:24:29 10° NNE
Cosmos 2266 Rocket 4.4 17:13:17 10° N 17:19:17 40° ENE 17:25:16 10° SE
CZ-4C R/B 4.4 17:15:42 10° N 17:19:18 41° WNW 17:22:43 10° SW
Cosmos 841 Rocket 3.4 17:14:09 10° SSW 17:19:18 81° ESE 17:24:29 10° NNE
ERBS 3.3 17:16:33 10° WNW 17:19:28 30° N 17:20:46 22° NE
Spot 1 4.5 17:15:21 10° NNE 17:20:08 80° WNW 17:25:08 10° SSW
USA 307 2.8 17:15:59 10° WNW 17:20:16 79° NNE 17:23:32 17° ESE
CZ-4C R/B 3.3 17:13:45 10° NW 17:20:48 72° SW 17:29:07 10° SSE
Lacrosse 5 rocket 1.7 17:19:29 10° WNW 17:23:19 63° SW 17:27:21 10° SE
NOSS 3-4 (A) 4.4 17:18:28 10° NW 17:24:25 36° NNE 17:28:52 19° ENE
NOSS 3-4 (C) 4.4 17:18:34 10° NW 17:24:30 36° NNE 17:28:56 19° ENE
ATLAS 2AS CENTAUR R/B 3.8 17:20:03 10° WNW 17:26:51 33° N 17:31:18 18° NE
Cosmos 2322 Rocket 2.5 17:21:30 10° NNW 17:27:00 46° NE 17:32:29 10° ESE
COSMOS 2428 4.1 17:23:26 10° NNW 17:27:24 19° NNE 17:28:43 17° NE
Cosmos 1933 Rocket 4.3 17:23:35 10° N 17:27:25 29° ENE 17:31:13 10° SE
Cosmos 2208 Rocket 4.4 17:23:41 10° S 17:28:50 46° ESE 17:32:51 17° NE
Cosmos 2150 Rocket 4.0 17:23:52 10° NNW 17:29:00 58° ENE 17:34:09 10° SE
Cosmos 1666 Rocket 3.5 17:25:33 10° N 17:30:01 87° ENE 17:34:26 10° S
Cosmos 1980 Rocket 3.2 17:24:45 10° NW 17:30:12 50° WSW 17:35:37 10° S
AQUARIUS 4.3 17:26:43 10° SSE 17:31:13 80° WSW 17:35:44 10° NNW
USA 234 3.4 17:25:37 10° ESE 17:32:11 80° SSW 17:38:45 10° WNW
Cosmos 1328 Rocket 3.8 17:28:11 10° SSE 17:32:25 45° E 17:36:01 14° NNE
Cosmos 1470 Rocket 3.7 17:29:14 10° N 17:33:36 50° ENE 17:37:58 10° SSE
Cosmos 1544 3.6 17:30:21 10° N 17:33:43 35° ENE 17:37:05 10° SE
Cosmos 1125 Rocket 3.5 17:30:01 10° NNW 17:35:15 61° ENE 17:40:27 10° SE
Cosmos 2026 Rocket 4.5 17:30:21 10° NNW 17:36:23 62° W 17:42:20 10° S
CORIOLIS 4.4 17:31:22 10° S 17:36:46 75° WSW 17:42:15 10° NNW
Cosmos 1812 2.6 17:34:20 10° S 17:38:11 79° E 17:41:44 12° NNE
Meteor 1-26 Rocket 4.5 17:32:10 10° SSW 17:38:12 81° WNW 17:44:17 10° NNE
PSLV R/B 3.6 17:35:34 10° SSE 17:39:16 88° WSW 17:43:05 10° NNW
H-2A R/B 1.9 17:35:01 10° SSE 17:40:06 77° ENE 17:45:06 10° NNW
Meteor 1-11 Rocket 3.9 17:35:09 10° N 17:40:37 49° ENE 17:46:10 10° SE
Cosmos 1634 Rocket 4.2 17:34:36 10° SSW 17:40:57 80° WNW 17:47:19 10° N
Okean O Rocket 1.8 17:37:38 10° SE 17:41:54 47° ENE 17:46:12 10° N
Meteor 2-8 Rocket 4.5 17:36:25 10° S 17:42:25 57° E 17:48:28 10° NNE
ATLAS CENTAUR R/B 3.6 17:39:31 10° NW 17:42:30 17° N 17:44:13 14° NNE
USA 308 2.8 17:38:42 10° WNW 17:42:58 88° SSW 17:45:21 26° ESE
GEOS 3 Rocket 4.2 17:41:55 25° ENE 17:44:14 38° NNE 17:48:59 10° NW
SL-16 R/B 2.1 17:42:02 10° NNW 17:47:45 76° ENE 17:53:25 10° SE
Cosmos 2237 Rocket 4.0 17:45:44 10° N 17:48:41 14° NNE 17:49:04 14° NNE
SKYMED 2 4.0 17:47:47 31° NE 17:49:11 40° E 17:53:16 10° SSE
Cosmos 540 Rocket 4.3 17:46:22 10° SW 17:51:19 48° WNW 17:56:08 11° NNE
ARGOS 3.1 17:46:41 10° SSE 17:52:01 63° ENE 17:57:21 10° N
Cosmos 2082 Rocket 2.3 17:46:47 10° SW 17:52:28 74° WNW 17:56:57 17° NNE
H-2A R/B 4.4 17:56:25 15° N 17:56:25 15° N 17:57:15 10° N
SMAP 4.3 17:51:10 10° S 17:55:35 43° W 18:00:03 10° NNW
CZ-4 R/B 3.5 17:58:55 13° N 17:58:55 13° N 17:59:30 10° N
deb Chang Zheng 4 3.4 17:53:08 10° SSE 17:57:26 74° ENE 18:01:46 10° NNW
COSMOS 2455 3.2 17:54:44 10° SW 18:00:44 64° NW 18:04:54 21° NNE
Cosmos 1833 Rocket 4.0 18:00:54 10° WSW 18:06:04 36° NW 18:10:35 13° NNE
Feng Yun 1-1 Rocket 4.3 18:01:11 10° SE 18:06:57 59° ENE 18:12:39 10° N
USA 305 3.1 18:03:02 10° WNW 18:07:15 66° SSW 18:08:52 35° SE
Cosmos 2333 Rocket 2.8 18:02:11 10° NNW 18:07:31 36° NE 18:08:05 35° ENE
Cosmos 1356 Rocket 3.3 18:04:06 10° N 18:08:19 75° ENE 18:12:35 10° SSE
CZ-2C R/B 2.5 18:06:50 21° NNE 18:10:22 66° ESE 18:15:30 10° S
SL-16 R/B 4.3 18:08:38 10° N 18:10:41 12° NNE 18:11:02 12° NNE
Cosmos 2219 Rocket 2.9 18:10:10 10° NNW 18:15:05 33° NE 18:15:05 33° NE
Cosmos 1655 Rocket 4.0 18:09:43 10° N 18:16:10 88° W 18:22:32 10° S
Cosmos 2180 Rocket 4.5 18:10:08 10° S 18:16:28 85° W 18:22:45 10° N
Aureole 3 Rocket 3.8 18:14:12 10° SSE 18:18:52 53° E 18:25:27 10° NNE
Cosmos 1515 Rocket 3.4 18:15:05 10° S 18:19:31 74° E 18:20:26 54° NNE
Cosmos 921 Rocket 2.9 18:17:41 10° SSW 18:21:55 87° WNW 18:22:47 57° NNE
Spot 2 4.4 18:23:28 23° SE 18:26:37 66° ENE 18:31:38 10° N
Cosmos 371 Rocket 3.4 18:29:44 10° NNW 18:33:50 56° NNE 18:33:50 56° NNE
Cosmos 2333 4.3 18:29:49 10° NNW 18:35:32 55° NE 18:35:33 55° NE
CZ-4B R/B 3.9 18:30:20 10° S 18:35:35 53° W 18:40:48 10° NNW
COSMO-SKYMED 1 2.7 18:36:23 52° N 18:37:21 73° WNW 18:41:41 10° SSW
USA 306 3.6 18:35:23 10° WNW 18:39:27 46° SSW 18:39:52 44° SSW
USA 267 3.2 18:37:47 47° ENE 18:39:57 87° NNW 18:46:30 10° WSW
Landsat 5 4.5 18:41:37 35° SSW 18:41:37 35° SSW 18:43:58 10° SSW
MOS 1-B Rocket 4.4 18:34:25 10° NNE 18:40:18 66° WNW 18:47:01 10° SSW
Meteor 2-15 Rocket 4.4 18:38:08 10° SSW 18:44:15 82° W 18:50:07 11° N
Meteor 1-27 Rocket 3.5 18:39:59 10° S 18:45:29 82° E 18:46:30 60° NNE
YAOGAN 1 3.8 18:48:29 33° NNW 18:48:29 33° NNW 18:50:57 10° NNW
Cosmos 836 Rocket 4.3 18:42:58 10° SSW 18:48:16 84° ESE 18:48:20 83° E
Cosmos 2360 Rocket 2.1 18:42:51 10° NNW 18:48:34 84° WSW 18:50:08 50° SSE
Cosmos 1536 4.4 18:50:13 10° NNW 18:52:18 28° NNW 18:52:18 28° NNW
USA 307 4.2 18:56:01 10° WNW 18:59:35 37° SW 18:59:35 37° SW
Lacrosse 5 rocket 4.2 18:59:47 10° W 19:01:48 14° SW 19:03:53 10° SSW
Cosmos 2322 Rocket 3.4 19:05:44 10° NW 19:11:01 40° WSW 19:16:17 10° S
COSMOS 2428 3.7 19:07:16 10° NNW 19:10:45 36° N 19:10:45 36° N
NOSS 3-4 (A) 3.6 19:09:27 10° NW 19:16:15 79° NE 19:16:19 79° NE
NOSS 3-4 (C) 3.6 19:09:34 10° NW 19:16:22 78° NE 19:16:24 78° NE
Okean O Rocket 3.8 19:14:50 10° SSW 19:18:28 24° W 19:22:08 10° NW
ATLAS 2AS CENTAUR R/B 3.2 19:12:13 10° NW 19:18:44 48° NNE 19:18:44 48° NNE
Cosmos 1867 4.2 19:15:14 10° SW 19:19:10 49° SW 19:19:10 49° SW
GEOS 3 Rocket 4.1 19:23:03 56° WNW 19:23:03 56° WNW 19:27:16 10° NW
ATLAS CENTAUR R/B 4.1 19:19:17 10° NNW 19:20:20 14° NNW 19:20:20 14° NNW
ATLAS CENTAUR R/B 4.0 19:23:54 10° W 19:27:08 25° WNW 19:27:08 25° WNW
SL-16 R/B 4.4 19:27:00 10° NW 19:31:16 22° WSW 19:35:32 10° SSW
Cosmos 2237 Rocket 4.2 19:29:14 10° NNW 19:30:53 18° NNW 19:30:53 18° NNW
Cosmos 2082 Rocket 4.1 19:33:15 10° W 19:37:33 21° NW 19:38:48 20° NNW
Cosmos 2333 Rocket 3.5 19:46:26 10° NW 19:50:07 38° WNW 19:50:07 38° WNW
Cosmos 2219 Rocket 3.8 19:54:01 10° NW 19:56:49 29° NW 19:56:49 29° NW
USA 267 4.4 20:25:08 38° WNW 20:25:08 38° WNW 20:29:09 10° W
